Date,TemperatureHighF,TemperatureAvgF,TemperatureLowF,DewpointHighF,DewpointAvgF,DewpointLowF,HumidityHigh,HumidityAvg,HumidityLow,PressureMaxIn,PressureMinIn,WindSpeedMaxMPH,WindSpeedAvgMPH,GustSpeedMaxMPH,PrecipitationSumIn
2013-1-1,74,66,55,68,62,52,94,89,79,30.09,29.92,18,3,36,0.04
2013-1-2,57,51,44,54,47,41,91,87,82,30.18,29.97,16,4,32,0.04
2013-1-3,45,42,34,42,38,30,92,87,78,30.36,30.17,16,2,32,0.26
2013-1-4,55,43,34,37,34,30,88,72,47,30.43,30.31,20,4,38,0.00
2013-1-5,54,48,40,41,36,32,77,66,53,30.36,30.23,16,6,32,0.00
2013-1-6,50,48,45,47,43,40,88,80,71,30.27,30.17,17,5,33,0.04
2013-1-7,61,49,37,43,40,34,90,73,49,30.32,30.18,20,6,39,0.00
2013-1-8,67,58,48,60,52,39,88,80,71,30.25,30.13,18,7,35,0.00
2013-1-9,68,64,59,66,62,56,95,91,85,30.23,30.15,18,7,36,0.00
2013-1-10,72,67,63,69,65,61,96,92,87,30.23,30.00,29,10,56,0.43
2013-1-11,78,70,63,71,66,61,94,88,75,30.14,30.04,16,4,31,0.00
2013-1-12,78,71,67,71,68,66,95,89,76,30.10,29.96,24,7,47,0.00
2013-1-13,76,72,70,71,69,68,93,90,83,30.00,29.93,20,8,38,0.00
2013-1-14,77,63,51,71,60,48,93,90,82,30.09,29.99,15,5,29,0.00
2013-1-15,73,61,50,71,60,48,95,93,90,30.04,29.91,14,1,28,0.59
2013-1-16,67,52,45,66,50,43,94,93,91,30.04,29.91,12,1,23,0.47
2013-1-17,50,43,38,43,38,34,92,82,68,30.34,30.02,30,6,59,0.02
2013-1-18,57,44,36,41,37,32,89,76,51,30.51,30.33,22,4,43,0.00
2013-1-19,64,49,36,49,41,33,89,75,56,30.39,30.22,18,3,35,0.00
2013-1-20,64,50,37,52,43,34,90,77,54,30.27,30.12,17,2,33,0.00
2013-1-21,65,52,38,50,42,35,90,71,50,30.21,30.11,15,1,29,0.00
2013-1-22,58,47,39,41,36,32,83,66,47,30.36,30.19,20,4,38,0.00
2013-1-23,66,51,35,51,43,32,89,76,57,30.40,30.28,14,1,27,0.00
2013-1-24,70,56,41,58,50,37,89,80,66,30.34,30.22,13,1,25,0.00
2013-1-25,71,58,46,60,52,43,91,82,64,30.29,30.15,14,2,28,0.00
2013-1-26,72,61,51,64,56,48,91,83,69,30.25,30.16,14,1,26,0.00
2013-1-27,71,60,51,62,56,49,93,86,70,30.31,30.22,15,2,30,0.00
2013-1-28,74,64,54,66,60,52,95,88,74,30.28,30.14,21,5,40,0.00
2013-1-29,77,72,67,71,68,65,93,90,81,30.14,29.86,30,8,60,0.00
2013-1-30,75,64,45,71,59,35,93,86,69,30.11,29.68,28,8,55,0.45
2013-1-31,56,47,38,42,35,32,82,63,40,30.28,30.10,16,5,31,0.00